sat.trackr.live / text

‹ back to catalog

STARLINK-31972

NORAD 59923 · 2024-106B

PAYLOAD ACTIVE UNKNOWN

§ Identity

Operator
Country
US
Launch date
2024-06-01
Launch site
AFETR
Launch vehicle
Mass (kg)
RCS (m²)

Purposes: comms

External: N2YO · Heavens-Above · Gunter

§ Orbital elements

Epoch: 2026-09-20T14:52:26.984928Z

Period
94.27 min
Inclination
43.0020°
Eccentricity
0.0001186
Mean motion
15.27581809 rev/d
Perigee alt
482.2 km
Apogee alt
483.9 km
Semi-major
6,861.2 km
B*
4.7842e-6
RAAN
311.7623°
Arg perigee
274.9170°
Mean anomaly
85.1546°
Rev number
13,038

§ Raw data

STARLINK-319721 59923U 24106B   26263.61975677 -.00000130  00000+0  47842-5 0  99922 59923  43.0020 311.7623 0001186 274.9170  85.1546 15.27581809130388

JSON: /api/v1/satellites/59923 · /tle

For live sub-satellite position, see the globe view (requires WebGL).

§ Visibility from observer

Set your observer location to see the next 7 days of passes ≥ 10°. The values pass through the URL so the page stays shareable.

No JS? Fill the form by hand. The geolocation button needs JavaScript.